This is the latest recevied weather packets stored in our database for station/object HK6LRQ-21. If no packets are shown the sender has not sent any weather packets the latest 1 day(s).
| Time | Temp. | Humidity | Pressure | Rain* | Wind** | Luminosity | Snow |
|---|---|---|---|---|---|---|---|
| 1778077148 | 17.78° C | 94% | 1017 hPa | 0 mm | - | - | - |
| 1778075947 | 16.67° C | 82% | 1017 hPa | 0 mm | - | - | - |
| 1778074746 | 14.44° C | 83% | 1017 hPa | 0 mm | - | - | - |
| 1778073545 | 12.78° C | 87% | 1017 hPa | 0 mm | - | - | - |
| 1778072344 | 13.89° C | 85% | 1017 hPa | 0 mm | - | - | - |
| 1778050727 | 12.22° C | 89% | 1017 hPa | 0 mm | - | - | - |
| 1778049526 | 12.78° C | 89% | 1017 hPa | 0 mm | - | - | - |
| 1778041119 | 13.89° C | 87% | 1017 hPa | 0 mm | - | - | - |
| 1778039918 | 14.44° C | 87% | 1018 hPa | 0 mm | - | - | - |
| 1778038717 | 13.33° C | 86% | 1017 hPa | 0 mm | - | - | - |
| 1778037516 | 13.89° C | 86% | 1017 hPa | 0 mm | - | - | - |
| 1778036315 | 14.44° C | 86% | 1017 hPa | 0 mm | - | - | - |
| 1778035114 | 13.89° C | 85% | 1017 hPa | 0 mm | - | - | - |
| 1778033913 | 14.44° C | 84% | 1016 hPa | 0 mm | - | - | - |
| 1778032707 | 15.56° C | 83% | 1017 hPa | 0 mm | - | - | - |
| 1778031506 | 15° C | 82% | 1016 hPa | 0 mm | - | - | - |
| 1778030305 | 15.56° C | 82% | 1015 hPa | 0 mm | - | - | - |
| 1778029104 | 16.11° C | 82% | 1016 hPa | 0 mm | - | - | - |
| 1778027903 | 15.56° C | 82% | 1015 hPa | 0 mm | - | - | - |
| 1778026702 | 16.11° C | 82% | 1014 hPa | 0 mm | - | - | - |
| 1778019497 | 16.67° C | 83% | 1011 hPa | 0 mm | - | - | - |
| 1778018296 | 16.11° C | 83% | 1011 hPa | 0 mm | - | - | - |
| 1778014693 | 17.78° C | 83% | 1011 hPa | 0 mm | - | - | - |
| 1778003885 | 18.33° C | 85% | 1014 hPa | 0 mm | - | - | - |
* Rain latest hour (hover to see other rain measurements)
** Current wind speed in m/s (hover to see current wind gust speed)